Weather History for Petersburg, WV

Change the Weather History Date:

Sunday, June 8, 2014

  Actual Average (KEKN) Record (KEKN)
Temperature  
Mean Temperature 72 °F 64 °F  
Max Temperature 86 °F 76 °F 92 °F (1933)
Min Temperature 59 °F 53 °F 25 °F (1977)
Degree Days  
Heating Degree Days 0 3  
Month to date heating degree days 27  
Since 1 June heating degree days 27  
Since 1 July heating degree days 5824  
Cooling Degree Days 8 2  
Month to date cooling degree days 15  
Year to date cooling degree days 38  
Since 1 June cooling degree days 15  
Growing Degree Days 22 (Base 50)    
Moisture  
Dew Point 66 °F    
Average Humidity 85    
Maximum Humidity 98    
Minimum Humidity 59    
Precipitation  
Precipitation 1.12 in 0.14 in 3.62 in (1947)
Month to date precipitation 1.14  
Year to date precipitation 20.35  
Snow  
Snow 0.00 in - - ()
Month to date snowfall  
Since 1 September snowfall  
Snow Depth -    
Sea Level Pressure  
Sea Level Pressure 29.90 in    
Wind  
Wind Speed 2 mph (South)    
Max Wind Speed 18 mph    
Max Gust Speed 26 mph    
Visibility 7 miles    
Events Fog , Rain , Thunderstorm    
T = Trace of Precipitation, MM = Missing Value Source: NWS Daily Summary

Daily Weather History Graph

Daily Weather History Graph

Search for Another Location

Airport:

Trip Planner

Search our weather history database for the weather conditions in past years. The results will help you decide how hot, cold, wet, or windy it might be!

Date:

Astronomy

Jun. 08, 2014 Rise Set
Actual Time 5:50 AM EDT 8:40 PM EDT
Civil Twilight 5:19 AM EDT 9:12 PM EDT
Nautical Twilight 4:38 AM EDT 9:52 PM EDT
Astronomical Twilight 3:53 AM EDT 10:38 PM EDT
Moon 3:59 PM EDT (6/8) 2:40 AM EDT (6/8)
Length of Visible Light 15h 53m
Length of Day
14h 49m
Waxing Gibbous, 77% of the Moon is Illuminated
Jun 8
Waxing Gibbous
Jun 13
Full
Jun 19
Last Quarter
Jun 27
New
Jul 5
First Quarter

Hourly Weather History & Observations

Time (EDT) Temp. Heat Index Dew Point Humidity Pressure Visibility Wind Dir Wind Speed Gust Speed Precip Events Conditions
12:15 AM 63.5 °F - 61.2 °F 92% 29.99 in 10.0 mi Calm Calm - N/A   Clear
12:35 AM 63.5 °F - 61.5 °F 93% 29.99 in 10.0 mi Calm Calm - N/A   Clear
12:55 AM 63.0 °F - 61.2 °F 94% 29.99 in 7.0 mi Calm Calm - N/A   Clear
1:15 AM 63.3 °F - 61.5 °F 94% 29.99 in 10.0 mi Calm Calm - N/A   Clear
1:35 AM 63.3 °F - 61.7 °F 94% 29.99 in 7.0 mi Calm Calm - N/A   Clear
1:55 AM 64.0 °F - 62.8 °F 96% 29.99 in 7.0 mi Calm Calm - N/A   Clear
2:15 AM 63.5 °F - 62.2 °F 96% 29.98 in 7.0 mi Calm Calm - N/A   Clear
2:35 AM 63.0 °F - 61.7 °F 96% 29.97 in 5.0 mi Calm Calm - N/A   Clear
2:55 AM 62.4 °F - 61.2 °F 96% 29.97 in 5.0 mi Calm Calm - N/A   Clear
3:15 AM 62.2 °F - 61.2 °F 96% 29.97 in 2.0 mi Calm Calm - N/A   Clear
3:35 AM 61.7 °F - 60.8 °F 97% 29.96 in 3.0 mi Calm Calm - N/A   Clear
3:55 AM 61.3 °F - 60.4 °F 97% 29.96 in 2.0 mi Calm Calm - N/A   Clear
4:15 AM 61.2 °F - 60.3 °F 97% 29.95 in 7.0 mi Calm Calm - N/A   Clear
4:35 AM 60.4 °F - 59.7 °F 97% 29.95 in 3.0 mi Calm Calm - N/A   Clear
4:55 AM 60.3 °F - 59.4 °F 97% 29.95 in 4.0 mi Calm Calm - N/A   Clear
5:15 AM 60.4 °F - 59.9 °F 98% 29.95 in 7.0 mi Calm Calm - N/A   Clear
5:35 AM 60.6 °F - 59.9 °F 97% 29.95 in 4.0 mi Calm Calm - N/A   Clear
5:55 AM 59.5 °F - 58.8 °F 97% 29.96 in 0.5 mi Calm Calm - N/A Fog Fog
6:15 AM 59.4 °F - 58.6 °F 97% 29.95 in 5.0 mi Calm Calm - N/A   Clear
6:35 AM 59.7 °F - 59.0 °F 97% 29.95 in 2.5 mi Calm Calm - N/A   Clear
6:55 AM 61.7 °F - 61.0 °F 97% 29.95 in 3.0 mi Calm Calm - N/A   Clear
7:15 AM 62.6 °F - 61.7 °F 97% 29.95 in 7.0 mi Calm Calm - N/A   Clear
7:35 AM 63.3 °F - 62.1 °F 96% 29.95 in 10.0 mi Calm Calm - N/A   Scattered Clouds
7:55 AM 65.3 °F - 62.8 °F 92% 29.95 in 10.0 mi Calm Calm - N/A   Scattered Clouds
8:15 AM 67.1 °F - 63.7 °F 89% 29.95 in 10.0 mi Calm Calm - N/A   Clear
8:35 AM 68.9 °F - 64.2 °F 85% 29.94 in 10.0 mi Calm Calm - N/A   Clear
8:55 AM 70.9 °F - 64.4 °F 80% 29.94 in 10.0 mi Calm Calm - N/A   Clear
9:15 AM 73.0 °F - 65.8 °F 78% 29.94 in 10.0 mi Calm Calm - N/A   Clear
9:35 AM 76.3 °F - 66.9 °F 73% 29.92 in 10.0 mi Calm Calm - N/A   Clear
9:55 AM 79.9 °F - 68.5 °F 68% 29.91 in 10.0 mi East 3.5 mph - N/A   Clear
10:35 AM 83.7 °F 87.2 °F 68.7 °F 61% 29.90 in 10.0 mi SSW 9.2 mph - N/A Thunderstorm Scattered Clouds
10:55 AM 83.5 °F 86.9 °F 68.9 °F 61% 29.89 in 10.0 mi SE 4.6 mph - N/A   Mostly Cloudy
11:15 AM 84.2 °F 88.1 °F 69.3 °F 61% 29.90 in 10.0 mi SSW 8.1 mph - N/A Thunderstorm Mostly Cloudy
11:35 AM 84.2 °F 87.9 °F 68.7 °F 60% 29.89 in 10.0 mi South 11.5 mph - N/A   Overcast
11:55 AM 82.8 °F 86.0 °F 68.4 °F 62% 29.89 in 10.0 mi SW 12.7 mph 17.3 mph N/A   Mostly Cloudy
12:15 PM 79.5 °F - 68.5 °F 69% 29.92 in 2.5 mi WSW 10.4 mph 20.7 mph 0.05 in Rain Heavy Rain
12:35 PM 77.0 °F - 71.2 °F 82% 29.90 in 2.5 mi South 13.8 mph 17.3 mph 0.17 in Rain Light Rain
1:15 PM 80.6 °F 85.2 °F 73.2 °F 78% 29.88 in 10.0 mi South 9.2 mph - N/A   Clear
1:35 PM 82.4 °F 87.7 °F 72.7 °F 72% 29.88 in 10.0 mi South 13.8 mph 18.4 mph N/A   Mostly Cloudy
2:15 PM 84.2 °F 89.3 °F 71.4 °F 65% 29.87 in 10.0 mi South 12.7 mph 19.6 mph N/A   Mostly Cloudy
2:35 PM 84.9 °F 89.4 °F 70.2 °F 61% 29.85 in 10.0 mi South 15.0 mph 26.5 mph N/A   Mostly Cloudy
2:55 PM 86.0 °F 91.5 °F 71.1 °F 61% 29.84 in 10.0 mi South 10.4 mph 20.7 mph N/A Thunderstorm Scattered Clouds
3:15 PM 84.0 °F 88.4 °F 70.2 °F 63% 29.84 in 10.0 mi SSW 8.1 mph 17.3 mph N/A   Mostly Cloudy
3:35 PM 84.4 °F 89.4 °F 70.9 °F 64% 29.82 in 10.0 mi SSE 10.4 mph 16.1 mph N/A   Mostly Cloudy
3:55 PM 86.2 °F 91.1 °F 70.5 °F 59% 29.83 in 10.0 mi SSW 10.4 mph 16.1 mph N/A   Scattered Clouds
4:15 PM 84.6 °F 89.4 °F 70.7 °F 63% 29.82 in 10.0 mi South 5.8 mph - N/A   Scattered Clouds
4:35 PM 86.2 °F 92.6 °F 72.1 °F 63% 29.80 in 10.0 mi South 8.1 mph - N/A   Scattered Clouds
4:55 PM 84.6 °F 88.5 °F 69.3 °F 60% 29.81 in 10.0 mi SSW 9.2 mph - N/A   Scattered Clouds
5:15 PM 83.7 °F 87.2 °F 69.1 °F 61% 29.80 in 10.0 mi South 5.8 mph - N/A Rain , Thunderstorm Light Thunderstorms and Rain
5:35 PM 80.2 °F 84.0 °F 71.8 °F 75% 29.81 in 10.0 mi West 4.6 mph - N/A Rain , Thunderstorm Light Thunderstorms and Rain
5:55 PM 70.9 °F - 67.1 °F 88% 29.83 in 0.5 mi South 18.4 mph 26.5 mph 0.50 in Rain , Thunderstorm Heavy Thunderstorms and Rain
6:15 PM 68.9 °F - 66.6 °F 92% 29.82 in 7.0 mi East 4.6 mph - 0.03 in Rain , Thunderstorm Light Thunderstorms and Rain
6:35 PM 69.3 °F - 67.1 °F 93% 29.82 in 10.0 mi Calm Calm - 0.05 in Rain , Thunderstorm Light Thunderstorms and Rain
6:55 PM 68.2 °F - 66.4 °F 94% 29.84 in 1.0 mi SW 9.2 mph - 0.25 in Rain Heavy Rain
7:15 PM 69.6 °F - 68.0 °F 95% 29.83 in 1.2 mi NNW 5.8 mph - 0.13 in Rain Heavy Rain
7:35 PM 71.4 °F - 70.0 °F 95% 29.84 in 10.0 mi SSE 4.6 mph - 0.18 in Rain Rain
7:55 PM 72.1 °F - 70.3 °F 94% 29.84 in 10.0 mi SE 6.9 mph - 0.20 in Rain Light Rain
8:15 PM 72.3 °F - 70.3 °F 93% 29.84 in 10.0 mi SE 3.5 mph - N/A   Overcast
8:35 PM 72.0 °F - 70.2 °F 94% 29.85 in 10.0 mi Calm Calm - N/A   Mostly Cloudy
8:55 PM 71.6 °F - 70.2 °F 95% 29.85 in 7.0 mi Calm Calm - N/A   Mostly Cloudy
9:15 PM 72.0 °F - 70.7 °F 96% 29.85 in 10.0 mi East 3.5 mph - N/A   Mostly Cloudy
9:35 PM 71.2 °F - 70.0 °F 96% 29.87 in 7.0 mi Calm Calm - N/A   Mostly Cloudy
9:55 PM 70.9 °F - 69.8 °F 96% 29.88 in 7.0 mi Calm Calm - N/A   Overcast
10:15 PM 70.9 °F - 69.8 °F 96% 29.87 in 5.0 mi Calm Calm - N/A   Overcast
10:35 PM 70.0 °F - 69.1 °F 97% 29.89 in 5.0 mi Calm Calm - N/A   Overcast
10:55 PM 69.6 °F - 68.7 °F 97% 29.89 in 7.0 mi SSW 3.5 mph - N/A   Overcast
11:15 PM 68.9 °F - 68.0 °F 97% 29.89 in 5.0 mi Calm Calm - N/A   Mostly Cloudy
11:35 PM 68.9 °F - 68.0 °F 97% 29.89 in 5.0 mi Calm Calm - N/A   Overcast
11:55 PM 70.7 °F - 69.8 °F 97% 29.89 in 7.0 mi Calm Calm - N/A   Overcast